| time (UTC) | temp F | wind direction | speed knots | gust knots | rain 1hr in | rain 24hr in | rain mn in | humidity % | barometer mb |
| 20260505002328 | 56 | 175 | 0.0 | 0.0 | 0.00 | 0.00 | 0.00 | 61 | 1006.8 |
| 20260505001827 | 57 | 175 | 0.0 | 0.0 | 0.00 | 0.00 | 0.00 | 59 | 1006.4 |
| 20260505001326 | 58 | 175 | 0.0 | 0.0 | 0.00 | 0.00 | 0.00 | 57 | 1006.4 |
| 20260505000826 | 58 | 175 | 0.0 | 0.0 | 0.00 | 0.00 | 0.00 | 56 | 1006.1 |
| 20260505000325 | 59 | 175 | 0.0 | 0.0 | 0.00 | 0.00 | 0.00 | 54 | 1006.1 |
| 20260504235825 | 60 | 175 | 0.0 | 2.6 | 0.00 | 0.00 | 0.00 | 53 | 1006.1 |
| 20260504235324 | 61 | 175 | 0.0 | 2.6 | 0.00 | 0.00 | 0.00 | 49 | 1006.1 |
| 20260504234823 | 61 | 167 | 0.0 | 2.6 | 0.00 | 0.00 | 0.00 | 48 | 1005.7 |
| 20260504234252 | 62 | 190 | 1.7 | 2.6 | 0.00 | 0.00 | 0.00 | 47 | 1005.7 |
| 20260504233751 | 63 | 239 | 1.7 | 4.3 | 0.00 | 0.00 | 0.00 | 46 | 1005.7 |
| 20260504233250 | 64 | 256 | 1.7 | 4.3 | 0.00 | 0.00 | 0.00 | 44 | 1005.7 |
| 20260504232749 | 65 | 213 | 1.7 | 5.2 | 0.00 | 0.00 | 0.00 | 43 | 1005.7 |
| 20260504232249 | 65 | 257 | 1.7 | 7.8 | 0.00 | 0.00 | 0.00 | 42 | 1005.7 |
| 20260504231748 | 66 | 255 | 1.7 | 10.4 | 0.00 | 0.00 | 0.00 | 41 | 1005.7 |
| 20260504231247 | 66 | 263 | 6.1 | 10.4 | 0.00 | 0.00 | 0.00 | 40 | 1005.7 |
| 20260504230746 | 66 | 249 | 4.3 | 7.0 | 0.00 | 0.00 | 0.00 | 41 | 1005.7 |
| 20260504230245 | 66 | 278 | 5.2 | 7.8 | 0.00 | 0.00 | 0.00 | 40 | 1005.4 |
| 20260504225744 | 67 | 271 | 1.7 | 7.8 | 0.00 | 0.00 | 0.00 | 40 | 1005.4 |
| 20260504225243 | 68 | 264 | 3.5 | 7.0 | 0.00 | 0.00 | 0.00 | 38 | 1005.4 |
| 20260504224743 | 68 | 277 | 4.3 | 9.6 | 0.00 | 0.00 | 0.00 | 37 | 1005.1 |
| 20260504224242 | 68 | 280 | 4.3 | 9.6 | 0.00 | 0.00 | 0.00 | 38 | 1005.1 |
| 20260504223741 | 68 | 275 | 7.0 | 9.6 | 0.00 | 0.00 | 0.00 | 37 | 1005.1 |
| 20260504223237 | 68 | 286 | 4.3 | 11.3 | 0.00 | 0.00 | 0.00 | 37 | 1005.1 |
| 20260504222736 | 68 | 269 | 7.0 | 11.3 | 0.00 | 0.00 | 0.00 | 37 | 1005.1 |
| 20260504222204 | 67 | 291 | 4.3 | 9.6 | 0.00 | 0.00 | 0.00 | 39 | 1005.1 |
| 20260504221703 | 67 | 284 | 6.1 | 9.6 | 0.00 | 0.00 | 0.00 | 39 | 1005.0 |
| 20260504221202 | 67 | 306 | 4.3 | 11.3 | 0.00 | 0.00 | 0.00 | 38 | 1005.0 |
| 20260504220702 | 68 | 254 | 4.3 | 12.2 | 0.00 | 0.00 | 0.00 | 38 | 1005.0 |
| 20260504220201 | 68 | 224 | 2.6 | 12.2 | 0.00 | 0.00 | 0.00 | 38 | 1005.0 |
| 20260504215700 | 68 | 267 | 5.2 | 13.0 | 0.00 | 0.00 | 0.00 | 37 | 1005.0 |
| 20260504215128 | 68 | 264 | 4.3 | 14.8 | 0.00 | 0.00 | 0.00 | 38 | 1005.0 |
| 20260504214628 | 69 | 271 | 8.7 | 15.6 | 0.00 | 0.00 | 0.00 | 36 | 1005.1 |
| 20260504214055 | 70 | 248 | 7.8 | 15.6 | 0.00 | 0.00 | 0.00 | 34 | 1005.1 |
| 20260504213554 | 70 | 297 | 7.8 | 14.8 | 0.00 | 0.00 | 0.00 | 34 | 1005.1 |
| 20260504213054 | 69 | 308 | 7.8 | 14.8 | 0.00 | 0.00 | 0.00 | 35 | 1005.1 |
| 20260504212553 | 69 | 283 | 6.1 | 16.5 | 0.00 | 0.00 | 0.00 | 36 | 1005.0 |
| 20260504212052 | 69 | 270 | 10.4 | 16.5 | 0.00 | 0.00 | 0.00 | 34 | 1005.0 |
| 20260504211551 | 70 | 274 | 5.2 | 17.4 | 0.00 | 0.00 | 0.00 | 35 | 1005.1 |
| 20260504211050 | 71 | 268 | 8.7 | 17.4 | 0.00 | 0.00 | 0.00 | 33 | 1005.1 |
| 20260504210550 | 72 | 270 | 7.8 | 16.5 | 0.00 | 0.00 | 0.00 | 32 | 1005.1 |
| 20260504210049 | 72 | 282 | 7.8 | 17.4 | 0.00 | 0.00 | 0.00 | 33 | 1005.1 |
| 20260504205548 | 73 | 302 | 7.0 | 18.2 | 0.00 | 0.00 | 0.00 | 31 | 1005.1 |
| 20260504205047 | 74 | 294 | 8.7 | 18.2 | 0.00 | 0.00 | 0.00 | 31 | 1004.8 |
| 20260504204544 | 73 | 298 | 5.2 | 16.5 | 0.00 | 0.00 | 0.00 | 33 | 1004.8 |
| 20260504203910 | 73 | 264 | 8.7 | 19.1 | 0.00 | 0.00 | 0.00 | 32 | 1004.8 |
| 20260504203410 | 72 | 301 | 3.5 | 19.1 | 0.00 | 0.00 | 0.00 | 33 | 1004.8 |
| 20260504202909 | 70 | 268 | 6.1 | 13.9 | 0.00 | 0.00 | 0.00 | 38 | 1004.7 |
| 20260504202337 | 71 | 283 | 3.5 | 8.7 | 0.00 | 0.00 | 0.00 | 38 | 1004.7 |
| 20260504201805 | 71 | 310 | 6.1 | 11.3 | 0.00 | 0.00 | 0.00 | 37 | 1004.8 |
| 20260504201305 | 71 | 303 | 6.1 | 16.5 | 0.00 | 0.00 | 0.00 | 36 | 1005.1 |
| 20260504200804 | 72 | 282 | 7.0 | 17.4 | 0.00 | 0.00 | 0.00 | 33 | 1005.1 |
| 20260504200233 | 72 | 289 | 9.6 | 17.4 | 0.00 | 0.00 | 0.00 | 34 | 1005.1 |
| 20260504195732 | 71 | 310 | 7.0 | 14.8 | 0.00 | 0.00 | 0.00 | 37 | 1005.1 |
| 20260504195231 | 71 | 282 | 7.8 | 14.8 | 0.00 | 0.00 | 0.00 | 33 | 1005.1 |
| 20260504194659 | 71 | 294 | 6.1 | 15.6 | 0.00 | 0.00 | 0.00 | 34 | 1005.1 |
| 20260504194127 | 71 | 307 | 5.2 | 15.6 | 0.00 | 0.00 | 0.00 | 36 | 1005.1 |
| 20260504193626 | 70 | 291 | 7.8 | 14.8 | 0.00 | 0.00 | 0.00 | 35 | 1005.1 |
| 20260504193126 | 68 | 288 | 5.2 | 12.2 | 0.00 | 0.00 | 0.00 | 38 | 1005.1 |
| 20260504192625 | 68 | 276 | 7.8 | 15.6 | 0.00 | 0.00 | 0.00 | 36 | 1005.4 |
| 20260504192124 | 69 | 269 | 9.6 | 15.6 | 0.00 | 0.00 | 0.00 | 37 | 1005.1 |
| 20260504191624 | 69 | 323 | 7.8 | 18.2 | 0.00 | 0.00 | 0.00 | 36 | 1005.1 |
| 20260504191123 | 70 | 292 | 9.6 | 18.2 | 0.00 | 0.00 | 0.00 | 34 | 1005.4 |
| 20260504190622 | 70 | 301 | 7.0 | 19.1 | 0.00 | 0.00 | 0.00 | 37 | 1005.4 |
| 20260504190122 | 70 | 265 | 10.4 | 19.1 | 0.00 | 0.00 | 0.00 | 33 | 1005.4 |
| 20260504185621 | 70 | 282 | 6.1 | 14.8 | 0.00 | 0.00 | 0.00 | 37 | 1005.4 |
| 20260504185049 | 71 | 309 | 7.8 | 15.6 | 0.00 | 0.00 | 0.00 | 36 | 1005.4 |
| 20260504184548 | 71 | 308 | 7.0 | 16.5 | 0.00 | 0.00 | 0.00 | 33 | 1005.1 |
| 20260504184047 | 70 | 298 | 4.3 | 16.5 | 0.00 | 0.00 | 0.00 | 36 | 1005.4 |
| 20260504183547 | 69 | 285 | 6.1 | 27.8 | 0.00 | 0.00 | 0.00 | 36 | 1005.4 |
| 20260504183046 | 70 | 279 | 12.2 | 27.8 | 0.00 | 0.00 | 0.00 | 34 | 1005.4 |
| 20260504182545 | 70 | 270 | 10.4 | 22.6 | 0.00 | 0.00 | 0.00 | 35 | 1005.4 |
| 20260504182044 | 70 | 276 | 11.3 | 26.1 | 0.00 | 0.00 | 0.00 | 35 | 1005.4 |
| 20260504181544 | 70 | 277 | 8.7 | 26.1 | 0.00 | 0.00 | 0.00 | 36 | 1005.4 |
| 20260504181043 | 70 | 284 | 11.3 | 22.6 | 0.00 | 0.00 | 0.00 | 33 | 1005.4 |
| 20260504180542 | 71 | 285 | 7.8 | 20.0 | 0.00 | 0.00 | 0.00 | 33 | 1005.0 |
| 20260504180042 | 71 | 288 | 8.7 | 22.6 | 0.00 | 0.00 | 0.00 | 32 | 1005.4 |
| 20260504175541 | 70 | 256 | 11.3 | 22.6 | 0.00 | 0.00 | 0.00 | 33 | 1005.0 |
| 20260504175040 | 70 | 250 | 10.4 | 18.2 | 0.00 | 0.00 | 0.00 | 35 | 1005.4 |
| 20260504174539 | 70 | 265 | 9.6 | 18.2 | 0.00 | 0.00 | 0.00 | 33 | 1005.4 |
| 20260504174035 | 69 | 272 | 6.1 | 19.1 | 0.00 | 0.00 | 0.00 | 38 | 1005.4 |
| 20260504173534 | 68 | 257 | 8.7 | 19.1 | 0.00 | 0.00 | 0.00 | 37 | 1005.7 |
| 20260504173033 | 68 | 276 | 9.6 | 16.5 | 0.00 | 0.00 | 0.00 | 35 | 1005.7 |
| 20260504172533 | 67 | 299 | 9.6 | 23.5 | 0.00 | 0.00 | 0.00 | 39 | 1005.7 |
| 20260504172032 | 67 | 261 | 7.8 | 23.5 | 0.00 | 0.00 | 0.00 | 36 | 1005.7 |
| 20260504171531 | 69 | 296 | 8.7 | 20.0 | 0.00 | 0.00 | 0.00 | 35 | 1005.7 |
| 20260504171030 | 69 | 283 | 6.1 | 22.6 | 0.00 | 0.00 | 0.00 | 36 | 1005.7 |
| 20260504170530 | 69 | 262 | 12.2 | 22.6 | 0.00 | 0.00 | 0.00 | 35 | 1005.7 |
| 20260504151009 | 65 | 268 | 7.8 | 18.2 | 0.00 | 0.00 | 0.00 | 42 | 1006.4 |
| 20260504150437 | 65 | 240 | 8.7 | 17.4 | 0.00 | 0.00 | 0.00 | 41 | 1006.4 |
| 20260504141328 | 60 | 277 | 8.7 | 16.5 | 0.00 | 0.00 | 0.00 | 47 | 1007.0 |
| 20260504140827 | 60 | 292 | 8.7 | 14.8 | 0.00 | 0.00 | 0.00 | 47 | 1007.3 |
| 20260504140324 | 60 | 282 | 7.0 | 13.9 | 0.00 | 0.00 | 0.00 | 48 | 1007.3 |
| 20260504130337 | 57 | 251 | 8.7 | 14.8 | 0.00 | 0.00 | 0.00 | 52 | 1008.0 |
| 20260504120155 | 49 | 220 | 1.7 | 5.2 | 0.00 | 0.00 | 0.00 | 72 | 1008.7 |
| 20260504110511 | 42 | 184 | 0.0 | 2.6 | 0.00 | 0.00 | 0.00 | 92 | 1009.0 |
| 20260504100259 | 38 | 114 | 0.0 | 0.0 | 0.00 | 0.00 | 0.00 | 93 | 1008.7 |
| 20260504081539 | 41 | 219 | 1.7 | 4.3 | 0.00 | 0.00 | 0.00 | 79 | 1008.7 |
| 20260504081007 | 41 | 232 | 1.7 | 4.3 | 0.00 | 0.00 | 0.00 | 79 | 1008.7 |
| 20260504080436 | 41 | 257 | 1.7 | 6.1 | 0.00 | 0.00 | 0.00 | 79 | 1008.7 |
| 20260504070222 | 39 | 265 | 2.6 | 5.2 | 0.00 | 0.00 | 0.00 | 89 | 1008.3 |
| 20260504050720 | 33 | 257 | 1.7 | 4.3 | 0.00 | 0.00 | 0.00 | 95 | 1008.3 |
| 20260504050220 | 33 | 244 | 1.7 | 4.3 | 0.00 | 0.00 | 0.00 | 95 | 1008.3 |
| 20260504045719 | 33 | 248 | 1.7 | 3.5 | 0.00 | 0.00 | 0.00 | 95 | 1008.3 |
| 20260504045218 | 33 | 253 | 1.7 | 3.5 | 0.00 | 0.00 | 0.00 | 94 | 1008.3 |
| 20260504044717 | 34 | 236 | 1.7 | 4.3 | 0.00 | 0.00 | 0.00 | 92 | 1008.3 |
| 20260504044146 | 34 | 252 | 1.7 | 4.3 | 0.00 | 0.00 | 0.00 | 92 | 1008.3 |
| 20260504043614 | 34 | 237 | 2.6 | 4.3 | 0.00 | 0.00 | 0.00 | 92 | 1008.3 |
| 20260504043113 | 34 | 248 | 2.6 | 4.3 | 0.00 | 0.00 | 0.00 | 92 | 1008.2 |
| 20260504042613 | 35 | 204 | 1.7 | 3.5 | 0.00 | 0.00 | 0.00 | 90 | 1008.2 |
| 20260504042112 | 35 | 263 | 1.7 | 4.3 | 0.00 | 0.00 | 0.00 | 89 | 1008.2 |
| 20260504041540 | 35 | 266 | 1.7 | 5.2 | 0.00 | 0.00 | 0.00 | 88 | 1008.2 |
| 20260504041039 | 36 | 257 | 1.7 | 5.2 | 0.00 | 0.00 | 0.00 | 88 | 1008.2 |
| 20260504040538 | 36 | 250 | 2.6 | 5.2 | 0.00 | 0.00 | 0.00 | 88 | 1008.2 |
| 20260504040038 | 37 | 251 | 1.7 | 6.1 | 0.00 | 0.00 | 0.00 | 86 | 1008.2 |
| 20260504035537 | 37 | 260 | 2.6 | 6.1 | 0.00 | 0.00 | 0.00 | 84 | 1008.2 |
| 20260504035036 | 37 | 282 | 2.6 | 6.1 | 0.00 | 0.00 | 0.00 | 83 | 1008.2 |
| 20260504034535 | 37 | 272 | 3.5 | 7.0 | 0.00 | 0.00 | 0.00 | 83 | 1008.2 |
| 20260504034034 | 37 | 277 | 3.5 | 7.0 | 0.00 | 0.00 | 0.00 | 83 | 1007.9 |
| 20260504033534 | 37 | 272 | 2.6 | 7.0 | 0.00 | 0.00 | 0.00 | 84 | 1007.9 |
| 20260504033033 | 37 | 283 | 3.5 | 7.0 | 0.00 | 0.00 | 0.00 | 85 | 1007.9 |
| 20260504032501 | 36 | 279 | 3.5 | 6.1 | 0.00 | 0.00 | 0.00 | 86 | 1007.9 |
| 20260504032001 | 36 | 274 | 2.6 | 6.1 | 0.00 | 0.00 | 0.00 | 87 | 1007.9 |
| 20260504031500 | 36 | 284 | 2.6 | 4.3 | 0.00 | 0.00 | 0.00 | 87 | 1007.9 |
| 20260504030959 | 36 | 299 | 2.6 | 7.0 | 0.00 | 0.00 | 0.00 | 88 | 1007.9 |
| 20260504030458 | 36 | 292 | 3.5 | 7.0 | 0.00 | 0.00 | 0.00 | 89 | 1007.9 |
| 20260504025957 | 36 | 283 | 1.7 | 7.0 | 0.00 | 0.00 | 0.00 | 90 | 1007.9 |
| 20260504025425 | 35 | 291 | 3.5 | 7.0 | 0.00 | 0.00 | 0.00 | 91 | 1007.9 |
| 20260504024854 | 35 | 280 | 3.5 | 7.8 | 0.00 | 0.00 | 0.00 | 91 | 1007.9 |
| 20260504024322 | 34 | 283 | 3.5 | 7.8 | 0.00 | 0.00 | 0.00 | 93 | 1007.9 |
| 20260504023821 | 34 | 293 | 3.5 | 6.1 | 0.00 | 0.00 | 0.00 | 93 | 1007.9 |
| 20260504023320 | 34 | 298 | 1.7 | 3.5 | 0.00 | 0.00 | 0.00 | 93 | 1007.9 |
| 20260504022820 | 34 | 23 | 0.0 | 3.5 | 0.00 | 0.00 | 0.00 | 93 | 1007.9 |
| 20260504022319 | 34 | 300 | 1.7 | 3.5 | 0.00 | 0.00 | 0.00 | 92 | 1007.9 |
| 20260504021819 | 35 | 294 | 0.9 | 1.7 | 0.00 | 0.00 | 0.00 | 92 | 1007.9 |
| 20260504021318 | 35 | 249 | 0.0 | 1.7 | 0.00 | 0.00 | 0.00 | 92 | 1007.9 |
| 20260504020817 | 35 | 263 | 0.0 | 1.7 | 0.00 | 0.00 | 0.00 | 92 | 1007.9 |
| 20260504020316 | 35 | 211 | 0.0 | 2.6 | 0.00 | 0.00 | 0.00 | 90 | 1007.9 |
| 20260504015816 | 35 | 229 | 1.7 | 2.6 | 0.00 | 0.00 | 0.00 | 89 | 1007.9 |
| 20260504015315 | 36 | 323 | 0.0 | 0.0 | 0.00 | 0.00 | 0.00 | 87 | 1007.9 |
| 20260504014814 | 36 | 323 | 0.0 | 0.0 | 0.00 | 0.00 | 0.00 | 86 | 1007.9 |
| 20260504014313 | 36 | 323 | 0.0 | 1.7 | 0.00 | 0.00 | 0.00 | 85 | 1007.9 |
| 20260504013813 | 37 | 336 | 0.0 | 1.7 | 0.00 | 0.00 | 0.00 | 84 | 1007.6 |
| 20260504013312 | 37 | 319 | 0.9 | 4.3 | 0.00 | 0.00 | 0.00 | 83 | 1007.6 |
| 20260504012809 | 38 | 281 | 0.9 | 4.3 | 0.00 | 0.00 | 0.00 | 82 | 1007.9 |
| 20260504012308 | 38 | 245 | 0.9 | 4.3 | 0.00 | 0.00 | 0.00 | 80 | 1007.9 |
| 20260504011807 | 38 | 272 | 1.7 | 4.3 | 0.00 | 0.00 | 0.00 | 79 | 1007.9 |
| 20260504011305 | 38 | 277 | 2.6 | 4.3 | 0.00 | 0.00 | 0.00 | 78 | 1007.9 |
| 20260504010805 | 38 | 284 | 0.9 | 1.7 | 0.00 | 0.00 | 0.00 | 76 | 1007.6 |
| 20260504010304 | 38 | 288 | 1.7 | 4.3 | 0.00 | 0.00 | 0.00 | 75 | 1007.6 |
| 20260504005803 | 39 | 305 | 1.7 | 4.3 | 0.00 | 0.00 | 0.00 | 74 | 1007.6 |
| 20260504005304 | 39 | 208 | 0.0 | 2.6 | 0.00 | 0.00 | 0.00 | 73 | 1007.6 |
| 20260504004802 | 40 | 208 | 0.0 | 3.5 | 0.00 | 0.00 | 0.00 | 71 | 1007.6 |
| 20260504004257 | 40 | 252 | 0.0 | 3.5 | 0.00 | 0.00 | 0.00 | 70 | 1007.3 |
| 20260504003756 | 40 | 322 | 1.7 | 4.3 | 0.00 | 0.00 | 0.00 | 70 | 1007.3 |
| 20260504003256 | 41 | 319 | 2.6 | 4.3 | 0.00 | 0.00 | 0.00 | 69 | 1007.3 |
| 20260504002724 | 41 | 312 | 2.6 | 5.2 | 0.00 | 0.00 | 0.00 | 68 | 1006.9 |